Retour au catalogue

DELTA 1 DEB

ActifLEO
NORAD 10627·DEBRIS·🇺🇸 United States

Lancé Jul 14, 1977 depuis Cape Canaveral Space Force Station

Loading…

Prochains Passages (prochaines 24 heures)

TLE

FraisSource: Space-Track

Époque: Sep 14, 2026, 12:31 UTC

1 10627U 77065EW  26257.52158131  .00003374  00000-0  20077-2 0  9994
2 10627  28.9702   1.2767 0569611 135.4168 229.3667 13.46162931342308

Suivez DELTA 1 DEB en temps réel avec AllMySat

Download on the App Store